Content
SEND FEEDBACK

Daily
Averages
Monthly
Summary
United States of America

MARATHON, TEXAS


Home > North America > United States > Texas
Elevation: 1264 meters     Latitude: 30 13N     Longitude: 103 14W

WEATHER
 
SELECT A DAY
Number of Records: 259,387;   Date Range: 6/6/03 - 7/23/14
 
SHARE

PRINT THIS DATA

[ ← Previous Day ]
WEATHER ALMANAC - 13 FEBRUARY, 2013
[ Next Day → ]
[ °F ]   °C
Weather ElementAverageHighLow
Temperature4.1 °C13.6 °C (3:55 pm)-5.7 °C (2:15 am)
Dewpoint-12 °C-6.1 °C (5:15 am)-16.9 °C (4:35 pm)
Humidity39 %81 % (4:15 am)11 % (4:15 pm)
Barometer1020.7 hPa1022.7 hPa (10:35 am)1018.3 hPa (4:15 pm)
Wind Speed14.6 km/h25.9 km/h (12:15 pm)
Wind Gust35.2 km/h (12:15 pm)
Weather ElementAverage
Visibility16.1 km
Wind DirectionSSW (194.9 °)

Weather ElementTotal
Precipitation---
Heating Degree Days14.4 (Base 18.3)
Averaged from 71 records on 13 February, 2013
WEATHER CONDITIONS BREAKOUT
WIND DIRECTION BREAKOUT
WEATHER BY HOUR - 13 FEBRUARY, 2013
[ °F ]   °C
Local TimeTemperatureDewpointHumidityBarometerVisibilityWind DirectionWind SpeedGust SpeedPrecipitationEventsConditions
12:35 AM-3.4 °C-10 °C61 %1022.4 hPa16.1 kmSW (220°)5.6 km/hClear
12:55 AM-2.9 °C-9.5 °C61 %1022.4 hPa16.1 kmSouth (190°)5.6 km/hClear
1:15 AM-3.4 °C-9.2 °C65 %1022.4 hPa16.1 kmSouth (170°)5.6 km/hClear
1:35 AM-4 °C-9.2 °C68 %1022.4 hPa16.1 kmSW (230°)9.3 km/hClear
1:55 AM-4.8 °C-9.2 °C72 %1022.4 hPa16.1 kmSW (220°)9.3 km/hClear
2:15 AM-5.7 °C-9.5 °C75 %1022.4 hPa16.1 kmSouth (180°)7.4 km/hClear
2:35 AM-5.7 °C-9.3 °C76 %1022 hPa16.1 kmSW (220°)13 km/hClear
2:55 AM-5.4 °C-9 °C76 %1022.4 hPa16.1 kmSouth (180°)7.4 km/hClear
3:15 AM-5.3 °C-8.6 °C78 %1022.4 hPa16.1 kmSSE (160°)9.3 km/hClear
3:35 AM-5.4 °C-8.5 °C79 %1022.4 hPa16.1 kmSSW (210°)9.3 km/hClear
3:55 AM-5.6 °C-8.5 °C80 %1022 hPa16.1 kmSSW (210°)13 km/hClear
4:15 AM-4.8 °C-7.6 °C81 %1022 hPa16.1 kmSSW (210°)14.8 km/hClear
4:35 AM-3.9 °C-6.9 °C80 %1021.7 hPa16.1 kmSSW (210°)16.7 km/hClear
4:55 AM-3.4 °C-6.5 °C79 %1021.7 hPa16.1 kmSSW (210°)14.8 km/hClear
5:15 AM-2.6 °C-6.1 °C77 %1021.3 hPa16.1 kmSSW (210°)16.7 km/hClear
5:35 AM-3 °C-6.5 °C77 %1021.7 hPa16.1 kmSSW (200°)16.7 km/hClear
5:55 AM-2.7 °C-6.6 °C75 %1021.7 hPa16.1 kmSSW (210°)13 km/hClear
6:15 AM-3.4 °C-7.1 °C76 %1022 hPa16.1 kmSSE (160°)9.3 km/hClear
6:35 AM-3.1 °C-6.7 °C77 %1022.4 hPa16.1 kmSSE (160°)11.1 km/hClear
6:55 AM-3.8 °C-6.9 °C79 %1022 hPa16.1 kmSouth (180°)13 km/hClear
7:15 AM-3.2 °C-6.9 °C76 %1022 hPa16.1 kmSouth (170°)16.7 km/hClear
7:35 AM-2.4 °C-7.3 °C69 %1022 hPa16.1 kmSouth (170°)14.8 km/hClear
7:55 AM-2.8 °C-7.7 °C69 %1022 hPa16.1 kmSouth (180°)9.3 km/hClear
8:15 AM-2.4 °C-7.4 °C69 %1022.4 hPa16.1 kmSouth (180°)9.3 km/hClear
8:35 AM-0.3 °C-7.1 °C61 %1022.4 hPa16.1 kmCalmClear
8:55 AM1.8 °C-7.2 °C52 %1022.4 hPa16.1 kmCalmClear
9:15 AM4.4 °C-8.4 °C39 %1022.4 hPa16.1 kmSSW (210°)13 km/hClear
9:35 AM6 °C-10.4 °C30 %1022.4 hPa16.1 kmSW (230°)18.5 km/hClear
9:55 AM6.7 °C-10.8 °C28 %1022.4 hPa16.1 kmSSW (200°)16.7 km/hClear
10:15 AM7.6 °C-10.8 °C26 %1022.4 hPa16.1 kmSSW (200°)18.5 km/hClear
10:35 AM8.1 °C-12.5 °C22 %1022.7 hPa16.1 kmSSW (200°)20.4 km/hClear
10:55 AM8.6 °C-12.1 °C22 %1022.4 hPa16.1 kmSouth (190°)18.5 km/hClear
11:15 AM8.9 °C-12.6 °C21 %1022.4 hPa16.1 kmSouth (190°)24.1 km/hClear
11:35 AM9.5 °C-13.2 °C19 %1022.4 hPa16.1 kmSSW (200°)20.4 km/h27.8 km/hClear
11:55 AM9.8 °C-13.6 °C18 %1022.4 hPa16.1 kmSouth (190°)20.4 km/h31.5 km/hClear
12:15 PM10.2 °C-14 °C17 %1022 hPa16.1 kmSouth (180°)25.9 km/h35.2 km/hClear
12:35 PM10.9 °C-14.2 °C16 %1021.7 hPa16.1 kmSSW (210°)22.2 km/h31.5 km/hClear
12:55 PM11.5 °C-13.5 °C16 %1021 hPa16.1 kmSSW (200°)14.8 km/hClear
1:15 PM11.9 °C-13.2 °C16 %1020.7 hPa16.1 kmSW (220°)24.1 km/h33.3 km/hClear
1:35 PM12.3 °C-13.7 °C15 %1020.3 hPa16.1 kmSSW (210°)16.7 km/h31.5 km/hClear
1:55 PM12.4 °C-14.1 °C15 %1019.6 hPa16.1 kmSW (230°)16.7 km/h29.6 km/hClear
2:15 PM13.2 °C-14 °C14 %1019.3 hPa16.1 kmSSW (200°)16.7 km/h29.6 km/hClear
2:35 PM13.3 °C-14.5 °C13 %1019.3 hPa16.1 kmSW (230°)18.5 km/h33.3 km/hClear
2:55 PM13.4 °C-15.3 °C13 %1019 hPa16.1 kmSW (230°)18.5 km/h27.8 km/hClear
3:15 PM13.5 °C-15.6 °C12 %1018.6 hPa16.1 kmWSW (240°)22.2 km/h29.6 km/hClear
3:35 PM13.5 °C-15.7 °C12 %1018.6 hPa16.1 kmSW (220°)22.2 km/hClear
3:55 PM13.6 °C-15.8 °C12 %1018.6 hPa16.1 kmSSW (210°)18.5 km/h29.6 km/hClear
4:15 PM13.5 °C-16.6 °C11 %1018.3 hPa16.1 kmSW (230°)24.1 km/h29.6 km/hClear
4:35 PM13.4 °C-16.9 °C11 %1018.3 hPa16.1 kmSW (230°)16.7 km/hClear
4:55 PM13.5 °C-16 °C12 %1018.3 hPa16.1 kmSSW (210°)24.1 km/hClear
5:15 PM13.4 °C-15.4 °C12 %1018.3 hPa16.1 kmWSW (240°)20.4 km/h25.9 km/hClear
5:35 PM13 °C-15.1 °C13 %1018.3 hPa16.1 kmWSW (240°)24.1 km/hClear
5:55 PM12.4 °C-14.5 °C14 %1018.3 hPa16.1 kmSW (230°)22.2 km/hClear
6:15 PM11.5 °C-14.6 °C15 %1018.6 hPa16.1 kmSW (220°)20.4 km/hClear
6:35 PM10.2 °C-15 °C16 %1018.6 hPa16.1 kmSW (220°)16.7 km/hClear
6:55 PM8.8 °C-15.4 °C17 %1019 hPa16.1 kmSW (220°)14.8 km/hClear
7:15 PM7.6 °C-15.6 °C18 %1019 hPa16.1 kmSSW (210°)16.7 km/hClear
7:35 PM7.1 °C-15.6 °C19 %1019.3 hPa16.1 kmSSW (210°)16.7 km/hClear
7:55 PM6.2 °C-15.8 °C19 %1019.6 hPa16.1 kmSSW (200°)13 km/hClear
8:15 PM4.8 °C-16 °C21 %1019.6 hPa16.1 kmSE (130°)7.4 km/hClear
8:35 PM4.8 °C-15.6 °C22 %1019.6 hPa16.1 kmENE (70°)7.4 km/hClear
8:55 PM5.8 °C-15.8 °C20 %1020 hPa16.1 kmSSW (210°)5.6 km/hClear
9:15 PM2.4 °C-15.9 °C25 %1019.6 hPa16.1 kmSSW (210°)11.1 km/hClear
9:35 PM1.3 °C-15.5 °C28 %1019.6 hPa16.1 kmSouth (190°)16.7 km/hClear
9:55 PM1.2 °C-15.4 °C28 %1020 hPa16.1 kmSSW (200°)11.1 km/hClear
10:15 PM0.5 °C-15.3 °C30 %1020 hPa16.1 kmSSW (200°)11.1 km/hClear
10:35 PM2.5 °C-14.9 °C27 %1020 hPa16.1 kmSSW (200°)7.4 km/hClear
10:55 PM3.7 °C-15 °C25 %1020 hPa16.1 kmSSW (210°)9.3 km/hClear
11:15 PM2.1 °C-14.9 °C28 %1020 hPa16.1 kmSouth (170°)7.4 km/hClear
11:35 PM2 °C-14.4 °C29 %1020 hPa16.1 kmSouth (180°)16.7 km/hClear
11:55 PM3.3 °C-14.1 °C27 %1020 hPa16.1 kmSouth (180°)20.4 km/hClear
Hourly data recorded from KE38, located 0 kilometers away from Marathon, Texas







STORIES FROM OUR PARTNERS